EW3922 Weather Reports


time (UTC)temp
F
wind
direction
speed
knots
gust
knots
rain 1hr
in
rain 24hr
in
rain mn
in
humidity
%
barometer
mb
20260510191522 83 297 0.0 0.9 0.00 0.00 0.00 46 1016.7
20260510190022 83 233 0.0 0.9 0.00 0.00 0.00 48 1016.9
20260510184511 83 176 0.0 0.9 0.00 0.00 0.00 56 1017.0
20260510183024 82 247 0.0 0.9 0.00 0.00 0.00 52 1016.8
20260510181513 82 247 0.0 0.9 0.00 0.00 0.00 55 1016.8
20260510180025 82 200 0.0 0.9 0.00 0.00 0.00 60 1016.9
20260510174515 82 227 0.0 0.9 0.00 0.00 0.00 59 1017.1
20260510173005 81 102 0.0 0.9 0.00 0.00 0.00 55 1017.3
20260510171519 81 112 0.0 0.9 0.00 0.00 0.00 50 1017.4
20260510170008 81 63 0.0 2.6 0.00 0.00 0.00 53 1017.5
20260510164521 80 71 0.0 1.7 0.00 0.00 0.00 59 1017.5
20260510163012 79 155 0.0 1.7 0.00 0.00 0.00 56 1017.6
20260510161522 78 317 0.0 0.9 0.00 0.00 0.00 60 1017.7
20260510160011 76 194 0.0 0.0 0.00 0.00 0.00 63 1017.5
20260510154518 75 194 0.0 0.9 0.00 0.00 0.00 70 1017.4
20260510153013 72 194 0.0 0.9 0.00 0.00 0.00 75 1017.3
20260510151514 68 194 0.0 0.0 0.00 0.00 0.00 82 1017.3
20260510150008 64 194 0.0 0.0 0.00 0.00 0.00 81 1017.1
20260510144533 63 194 0.0 0.0 0.00 0.00 0.00 76 1017.1
20260510143018 62 194 0.0 0.0 0.00 0.00 0.00 76 1017.0
20260510141520 61 194 0.0 0.0 0.00 0.00 0.00 77 1017.1
20260510140011 60 194 0.0 0.0 0.00 0.00 0.00 77 1017.0
20260510134522 59 194 0.0 0.0 0.00 0.00 0.00 77 1017.2
20260510133013 57 194 0.0 0.0 0.00 0.00 0.00 78 1017.3
20260510131523 56 194 0.0 0.0 0.00 0.00 0.00 78 1017.2
20260510130015 55 194 0.0 0.0 0.00 0.00 0.00 79 1017.1
20260510124523 54 194 0.0 0.0 0.00 0.00 0.00 80 1017.0
20260510123025 53 194 0.0 0.0 0.00 0.00 0.00 80 1016.9
20260510121525 52 194 0.0 0.0 0.00 0.00 0.00 81 1016.8
20260510120019 51 194 0.0 0.0 0.00 0.00 0.00 82 1016.6
20260510114524 50 194 0.0 0.0 0.00 0.00 0.00 83 1016.4
20260510113018 50 194 0.0 0.0 0.00 0.00 0.00 83 1016.0
20260510111522 50 194 0.0 0.0 0.00 0.00 0.00 84 1016.2
20260510110018 50 194 0.0 0.0 0.00 0.00 0.00 84 1015.7
20260510104521 50 194 0.0 0.0 0.00 0.00 0.00 84 1015.2
20260510103010 51 194 0.0 0.0 0.00 0.00 0.00 84 1015.1
20260510101518 51 194 0.0 0.0 0.00 0.00 0.00 84 1014.9
20260510100015 51 194 0.0 0.0 0.00 0.00 0.00 84 1014.7
20260510094539 51 194 0.0 0.0 0.00 0.00 0.00 84 1014.5
20260510093013 51 194 0.0 0.0 0.00 0.00 0.00 84 1014.5
20260510091525 51 194 0.0 0.0 0.00 0.00 0.00 84 1014.5
20260510090014 52 194 0.0 0.0 0.00 0.00 0.00 84 1014.3
20260510084521 52 194 0.0 0.0 0.00 0.00 0.00 84 1014.2
20260510083015 52 194 0.0 0.0 0.00 0.00 0.00 84 1014.0
20260510081525 52 194 0.0 0.0 0.00 0.00 0.00 84 1013.9
20260510080016 52 194 0.0 0.0 0.00 0.00 0.00 84 1013.9
20260510074522 53 194 0.0 0.0 0.00 0.00 0.00 84 1013.9
20260510073017 53 194 0.0 0.0 0.00 0.00 0.00 84 1013.8
20260510071524 53 194 0.0 0.0 0.00 0.00 0.00 84 1013.8
20260510070022 53 194 0.0 0.0 0.00 0.00 0.00 84 1013.6
20260510064505 54 194 0.0 0.0 0.00 0.00 0.00 84 1013.6
20260510063017 54 194 0.0 0.0 0.00 0.00 0.00 83 1013.6
20260510061506 54 194 0.0 0.0 0.00 0.00 0.00 83 1013.5
20260510060013 55 194 0.0 0.0 0.00 0.00 0.00 83 1013.4
20260510054522 55 194 0.0 0.0 0.00 0.00 0.00 83 1013.4
20260510053034 55 194 0.0 0.0 0.00 0.00 0.00 83 1013.5
20260510051523 55 194 0.0 0.0 0.00 0.00 0.00 83 1013.3
20260510050010 56 194 0.0 0.0 0.00 0.00 0.00 83 1013.2
20260510044521 56 194 0.0 0.0 0.00 0.00 0.00 83 1013.2
20260510043008 57 194 0.0 0.0 0.00 0.00 0.00 82 1013.2
20260510041526 57 194 0.0 0.0 0.00 0.00 0.00 82 1013.2
20260510040014 58 194 0.0 0.0 0.00 0.00 0.00 81 1013.3
20260510034515 58 194 0.0 0.0 0.00 0.00 0.00 81 1013.3
20260510033007 59 194 0.0 0.0 0.00 0.00 0.00 80 1013.2
20260510031518 60 194 0.0 0.0 0.00 0.00 0.00 80 1013.3
20260510030027 60 194 0.0 0.0 0.00 0.00 0.00 78 1013.3
20260510024516 61 194 0.0 0.0 0.00 0.00 0.00 78 1013.1
20260510023007 62 194 0.0 0.0 0.00 0.00 0.00 76 1012.9
20260510021531 63 194 0.0 0.0 0.00 0.00 0.00 75 1012.7
20260510020024 64 194 0.0 0.0 0.00 0.00 0.00 74 1012.6
20260510014514 65 194 0.0 0.0 0.00 0.00 0.00 71 1012.3
20260510013026 66 194 0.0 0.0 0.00 0.00 0.00 69 1012.1
20260510011511 68 194 0.0 0.0 0.00 0.00 0.00 68 1011.9
20260510010019 69 194 0.0 0.0 0.00 0.00 0.00 68 1011.8
20260510004514 71 194 0.0 0.0 0.00 0.00 0.00 64 1011.6
20260510003020 72 194 0.0 0.0 0.00 0.00 0.00 64 1011.4
20260510001517 73 194 0.0 0.0 0.00 0.00 0.00 61 1011.3
20260510000028 75 194 0.0 0.0 0.00 0.00 0.00 58 1011.2
20260509234510 76 194 0.0 0.0 0.00 0.00 0.00 57 1011.1
20260509233020 77 194 0.0 0.0 0.00 0.00 0.00 53 1010.9
20260509231512 79 194 0.0 0.0 0.00 0.00 0.00 50 1011.0
20260509230021 80 194 0.0 0.0 0.00 0.00 0.00 47 1011.1
20260509224510 81 194 0.0 0.0 0.00 0.00 0.00 42 1011.0
20260509223022 81 194 0.0 0.0 0.00 0.00 0.00 41 1011.0
20260509221514 83 194 0.0 0.0 0.00 0.00 0.00 39 1011.0
20260509220024 83 194 0.0 0.0 0.00 0.00 0.00 37 1011.0
20260509214514 84 194 0.0 0.9 0.00 0.00 0.00 32 1010.9
20260509213029 84 194 0.0 0.0 0.00 0.00 0.00 40 1010.7
20260509211514 84 194 0.0 0.9 0.00 0.00 0.00 42 1010.6
20260509210005 84 194 0.0 0.9 0.00 0.00 0.00 42 1010.7
20260509204516 83 144 0.0 2.6 0.00 0.00 0.00 39 1010.7
20260509203008 83 19 0.0 0.9 0.00 0.00 0.00 41 1010.7
20260509201515 82 350 0.0 0.9 0.00 0.00 0.00 42 1010.9
20260509200007 82 32 0.0 2.6 0.00 0.00 0.00 46 1011.2
20260509194517 83 227 0.0 0.9 0.00 0.00 0.00 44 1011.2
20260509193024 83 265 0.0 0.9 0.00 0.00 0.00 43 1011.3